TimePST,TemperatureF,Dew PointF,Humidity,Sea Level PressureIn,VisibilityMPH,Wind Direction,Wind SpeedMPH,Gust SpeedMPH,PrecipitationIn,Events,Conditions,WindDirDegrees,DateUTC
1:53 AM,42.1,37.0,82,29.88,6.0,Calm,Calm,-,N/A,,Haze,0,2011-11-11 09:53:00
2:53 AM,43.0,39.0,86,29.86,6.0,Calm,Calm,-,N/A,,Clear,0,2011-11-11 10:53:00
4:53 AM,45.0,41.0,86,29.82,6.0,Calm,Calm,-,N/A,,Clear,0,2011-11-11 12:53:00
5:53 AM,45.0,41.0,86,29.80,6.0,Calm,Calm,-,N/A,,Clear,0,2011-11-11 13:53:00
8:53 AM,48.0,42.1,80,29.81,10.0,West,6.9,-,N/A,,Mostly Cloudy,270,2011-11-11 16:53:00
9:53 AM,52.0,44.1,74,29.83,8.0,SSW,5.8,-,0.00,,Overcast,210,2011-11-11 17:53:00
11:53 AM,57.9,42.1,56,29.79,10.0,ESE,15.0,23.0,0.00,Rain,Light Rain,120,2011-11-11 19:53:00
12:53 PM,57.9,43.0,58,29.76,10.0,ESE,15.0,19.6,0.00,,Mostly Cloudy,110,2011-11-11 20:53:00
12:56 PM,57.2,42.8,59,29.76,10.0,ESE,12.7,19.6,N/A,,Mostly Cloudy,110,2011-11-11 20:56:00
1:53 PM,59.0,43.0,55,29.75,10.0,SE,4.6,-,N/A,,Overcast,130,2011-11-11 21:53:00
2:53 PM,59.0,43.0,55,29.74,10.0,East,8.1,-,N/A,,Overcast,100,2011-11-11 22:53:00
3:53 PM,57.0,45.0,64,29.75,10.0,NE,3.5,-,N/A,,Mostly Cloudy,40,2011-11-11 23:53:00
4:53 PM,55.9,46.0,69,29.75,10.0,NNE,5.8,-,0.00,Rain,Light Rain,30,2011-11-12 00:53:00
5:31 PM,53.6,46.4,77,29.76,10.0,WSW,4.6,-,0.00,,Overcast,240,2011-11-12 01:31:00
5:53 PM,53.1,46.9,80,29.77,10.0,WNW,6.9,-,0.00,,Overcast,290,2011-11-12 01:53:00
6:53 PM,52.0,48.9,89,29.79,9.0,SSW,6.9,-,0.00,Rain,Light Rain,200,2011-11-12 02:53:00
7:53 PM,52.0,48.0,86,29.78,10.0,Calm,Calm,-,0.01,,Overcast,0,2011-11-12 03:53:00
8:53 PM,50.0,48.0,93,29.78,8.0,Calm,Calm,-,N/A,,Scattered Clouds,0,2011-11-12 04:53:00
9:53 PM,48.9,46.9,93,29.80,8.0,WSW,3.5,-,N/A,,Scattered Clouds,240,2011-11-12 05:53:00
10:53 PM,50.0,46.9,89,29.81,10.0,WNW,3.5,-,N/A,,Overcast,300,2011-11-12 06:53:00
11:53 PM,51.1,48.0,89,29.81,10.0,NNE,4.6,-,N/A,,Overcast,30,2011-11-12 07:53:00